﻿_id,日時,10分間移動積算雨量(mm),1時間移動積算雨量(mm),日雨量(mm),累計雨量(mm)
1,2021-07-12T00:00:00,0,0,2,2
2,2021-07-12T00:01:00,0,0,0,2
3,2021-07-12T00:02:00,0,0,0,2
4,2021-07-12T00:03:00,0,0,0,2
5,2021-07-12T00:04:00,0,0,0,2
6,2021-07-12T00:05:00,0,0,0,2
7,2021-07-12T00:06:00,0,0,0,2
8,2021-07-12T00:07:00,0,0,0,2
9,2021-07-12T00:08:00,0,0,0,2
10,2021-07-12T00:09:00,0,0,0,2
11,2021-07-12T00:10:00,0,0,0,2
12,2021-07-12T00:11:00,0,0,0,2
13,2021-07-12T00:12:00,0,0,0,2
14,2021-07-12T00:13:00,0,0,0,2
15,2021-07-12T00:14:00,0,0,0,2
16,2021-07-12T00:15:00,0,0,0,2
17,2021-07-12T00:16:00,0,0,0,2
18,2021-07-12T00:17:00,0,0,0,2
19,2021-07-12T00:18:00,0,0,0,2
20,2021-07-12T00:19:00,0,0,0,2
21,2021-07-12T00:20:00,0,0,0,2
22,2021-07-12T00:21:00,0,0,0,2
23,2021-07-12T00:22:00,0,0,0,2
24,2021-07-12T00:23:00,0,0,0,2
25,2021-07-12T00:24:00,0,0,0,2
26,2021-07-12T00:25:00,0,0,0,2
27,2021-07-12T00:26:00,0,0,0,2
28,2021-07-12T00:27:00,0,0,0,2
29,2021-07-12T00:28:00,0,0,0,2
30,2021-07-12T00:29:00,0,0,0,2
31,2021-07-12T00:30:00,0,0,0,2
32,2021-07-12T00:31:00,0,0,0,2
33,2021-07-12T00:32:00,0,0,0,2
34,2021-07-12T00:33:00,0,0,0,2
35,2021-07-12T00:34:00,0,0,0,2
36,2021-07-12T00:35:00,0,0,0,2
37,2021-07-12T00:36:00,0,0,0,2
38,2021-07-12T00:37:00,0,0,0,2
39,2021-07-12T00:38:00,0,0,0,2
40,2021-07-12T00:39:00,0,0,0,2
41,2021-07-12T00:40:00,0,0,0,2
42,2021-07-12T00:41:00,0,0,0,2
43,2021-07-12T00:42:00,0,0,0,2
44,2021-07-12T00:43:00,0,0,0,2
45,2021-07-12T00:44:00,0,0,0,2
46,2021-07-12T00:45:00,0,0,0,2
47,2021-07-12T00:46:00,0,0,0,2
48,2021-07-12T00:47:00,0,0,0,2
49,2021-07-12T00:48:00,0,0,0,2
50,2021-07-12T00:49:00,0,0,0,2
51,2021-07-12T00:50:00,0,0,0,2
52,2021-07-12T00:51:00,0,0,0,2
53,2021-07-12T00:52:00,0,0,0,2
54,2021-07-12T00:53:00,0,0,0,2
55,2021-07-12T00:54:00,0,0,0,2
56,2021-07-12T00:55:00,0,0,0,2
57,2021-07-12T00:56:00,0,0,0,2
58,2021-07-12T00:57:00,0,0,0,2
59,2021-07-12T00:58:00,0,0,0,2
60,2021-07-12T00:59:00,0,0,0,2
61,2021-07-12T01:00:00,0,0,0,2
62,2021-07-12T01:01:00,0,0,0,2
63,2021-07-12T01:02:00,0,0,0,2
64,2021-07-12T01:03:00,0,0,0,2
65,2021-07-12T01:04:00,0,0,0,2
66,2021-07-12T01:05:00,0,0,0,2
67,2021-07-12T01:06:00,0,0,0,2
68,2021-07-12T01:07:00,0,0,0,2
69,2021-07-12T01:08:00,0,0,0,2
70,2021-07-12T01:09:00,0,0,0,2
71,2021-07-12T01:10:00,0,0,0,2
72,2021-07-12T01:11:00,0,0,0,2
73,2021-07-12T01:12:00,0,0,0,2
74,2021-07-12T01:13:00,0,0,0,2
75,2021-07-12T01:14:00,0,0,0,2
76,2021-07-12T01:15:00,0,0,0,2
77,2021-07-12T01:16:00,0,0,0,2
78,2021-07-12T01:17:00,0,0,0,2
79,2021-07-12T01:18:00,0,0,0,2
80,2021-07-12T01:19:00,0,0,0,2
81,2021-07-12T01:20:00,0,0,0,2
82,2021-07-12T01:21:00,0,0,0,2
83,2021-07-12T01:22:00,0,0,0,2
84,2021-07-12T01:23:00,0,0,0,2
85,2021-07-12T01:24:00,0,0,0,2
86,2021-07-12T01:25:00,0,0,0,2
87,2021-07-12T01:26:00,0,0,0,2
88,2021-07-12T01:27:00,0,0,0,2
89,2021-07-12T01:28:00,0,0,0,2
90,2021-07-12T01:29:00,0,0,0,2
91,2021-07-12T01:30:00,0,0,0,2
92,2021-07-12T01:31:00,0,0,0,2
93,2021-07-12T01:32:00,0,0,0,2
94,2021-07-12T01:33:00,0,0,0,2
95,2021-07-12T01:34:00,0,0,0,2
96,2021-07-12T01:35:00,0,0,0,2
97,2021-07-12T01:36:00,0,0,0,2
98,2021-07-12T01:37:00,0,0,0,2
99,2021-07-12T01:38:00,0,0,0,2
100,2021-07-12T01:39:00,0,0,0,2
101,2021-07-12T01:40:00,0,0,0,2
102,2021-07-12T01:41:00,0,0,0,2
103,2021-07-12T01:42:00,0,0,0,2
104,2021-07-12T01:43:00,0,0,0,2
105,2021-07-12T01:44:00,0,0,0,2
106,2021-07-12T01:45:00,0,0,0,2
107,2021-07-12T01:46:00,0,0,0,2
108,2021-07-12T01:47:00,0,0,0,2
109,2021-07-12T01:48:00,0,0,0,2
110,2021-07-12T01:49:00,0,0,0,2
111,2021-07-12T01:50:00,0,0,0,2
112,2021-07-12T01:51:00,0,0,0,2
113,2021-07-12T01:52:00,0,0,0,2
114,2021-07-12T01:53:00,0,0,0,2
115,2021-07-12T01:54:00,0,0,0,2
116,2021-07-12T01:55:00,0,0,0,2
117,2021-07-12T01:56:00,0,0,0,2
118,2021-07-12T01:57:00,0,0,0,2
119,2021-07-12T01:58:00,0,0,0,2
120,2021-07-12T01:59:00,0,0,0,2
121,2021-07-12T02:00:00,0,0,0,2
122,2021-07-12T02:01:00,0,0,0,2
123,2021-07-12T02:02:00,0,0,0,2
124,2021-07-12T02:03:00,0,0,0,2
125,2021-07-12T02:04:00,0,0,0,2
126,2021-07-12T02:05:00,0,0,0,2
127,2021-07-12T02:06:00,0,0,0,2
128,2021-07-12T02:07:00,0,0,0,2
129,2021-07-12T02:08:00,0,0,0,2
130,2021-07-12T02:09:00,0,0,0,2
131,2021-07-12T02:10:00,0,0,0,2
132,2021-07-12T02:11:00,0,0,0,2
133,2021-07-12T02:12:00,0,0,0,2
134,2021-07-12T02:13:00,0,0,0,2
135,2021-07-12T02:14:00,0,0,0,2
136,2021-07-12T02:15:00,0,0,0,2
137,2021-07-12T02:16:00,0,0,0,2
138,2021-07-12T02:17:00,0,0,0,2
139,2021-07-12T02:18:00,0,0,0,2
140,2021-07-12T02:19:00,0,0,0,2
141,2021-07-12T02:20:00,0,0,0,2
142,2021-07-12T02:21:00,0,0,0,2
143,2021-07-12T02:22:00,0,0,0,2
144,2021-07-12T02:23:00,0,0,0,2
145,2021-07-12T02:24:00,0,0,0,2
146,2021-07-12T02:25:00,0,0,0,2
147,2021-07-12T02:26:00,0,0,0,2
148,2021-07-12T02:27:00,0,0,0,2
149,2021-07-12T02:28:00,0,0,0,2
150,2021-07-12T02:29:00,0,0,0,2
151,2021-07-12T02:30:00,0,0,0,2
152,2021-07-12T02:31:00,0,0,0,2
153,2021-07-12T02:32:00,0,0,0,2
154,2021-07-12T02:33:00,0,0,0,2
155,2021-07-12T02:34:00,0,0,0,2
156,2021-07-12T02:35:00,0,0,0,2
157,2021-07-12T02:36:00,0,0,0,2
158,2021-07-12T02:37:00,0,0,0,2
159,2021-07-12T02:38:00,0,0,0,2
160,2021-07-12T02:39:00,0,0,0,2
161,2021-07-12T02:40:00,0,0,0,2
162,2021-07-12T02:41:00,0,0,0,2
163,2021-07-12T02:42:00,0,0,0,2
164,2021-07-12T02:43:00,0,0,0,2
165,2021-07-12T02:44:00,0,0,0,2
166,2021-07-12T02:45:00,0,0,0,2
167,2021-07-12T02:46:00,0,0,0,2
168,2021-07-12T02:47:00,0,0,0,2
169,2021-07-12T02:48:00,0,0,0,2
170,2021-07-12T02:49:00,0,0,0,2
171,2021-07-12T02:50:00,0,0,0,2
172,2021-07-12T02:51:00,0,0,0,2
173,2021-07-12T02:52:00,0,0,0,2
174,2021-07-12T02:53:00,0,0,0,2
175,2021-07-12T02:54:00,0,0,0,2
176,2021-07-12T02:55:00,0,0,0,2
177,2021-07-12T02:56:00,0,0,0,2
178,2021-07-12T02:57:00,0,0,0,2
179,2021-07-12T02:58:00,0,0,0,2
180,2021-07-12T02:59:00,0,0,0,2
181,2021-07-12T03:00:00,0,0,0,2
182,2021-07-12T03:01:00,0,0,0,2
183,2021-07-12T03:02:00,0,0,0,2
184,2021-07-12T03:03:00,0,0,0,2
185,2021-07-12T03:04:00,0,0,0,2
186,2021-07-12T03:05:00,0,0,0,2
187,2021-07-12T03:06:00,0,0,0,2
188,2021-07-12T03:07:00,0,0,0,2
189,2021-07-12T03:08:00,0,0,0,2
190,2021-07-12T03:09:00,0,0,0,2
191,2021-07-12T03:10:00,0,0,0,2
192,2021-07-12T03:11:00,0,0,0,2
193,2021-07-12T03:12:00,0,0,0,2
194,2021-07-12T03:13:00,0,0,0,2
195,2021-07-12T03:14:00,0,0,0,2
196,2021-07-12T03:15:00,0,0,0,2
197,2021-07-12T03:16:00,0,0,0,2
198,2021-07-12T03:17:00,0,0,0,2
199,2021-07-12T03:18:00,0,0,0,2
200,2021-07-12T03:19:00,0,0,0,2
201,2021-07-12T03:20:00,0,0,0,2
202,2021-07-12T03:21:00,0,0,0,2
203,2021-07-12T03:22:00,0,0,0,2
204,2021-07-12T03:23:00,0,0,0,2
205,2021-07-12T03:24:00,0,0,0,2
206,2021-07-12T03:25:00,0,0,0,2
207,2021-07-12T03:26:00,0,0,0,2
208,2021-07-12T03:27:00,0,0,0,2
209,2021-07-12T03:28:00,0,0,0,2
210,2021-07-12T03:29:00,0,0,0,2
211,2021-07-12T03:30:00,0,0,0,2
212,2021-07-12T03:31:00,0,0,0,2
213,2021-07-12T03:32:00,0,0,0,2
214,2021-07-12T03:33:00,0,0,0,2
215,2021-07-12T03:34:00,0,0,0,2
216,2021-07-12T03:35:00,0,0,0,2
217,2021-07-12T03:36:00,0,0,0,2
218,2021-07-12T03:37:00,0,0,0,2
219,2021-07-12T03:38:00,0,0,0,2
220,2021-07-12T03:39:00,0,0,0,2
221,2021-07-12T03:40:00,0,0,0,2
222,2021-07-12T03:41:00,0,0,0,2
223,2021-07-12T03:42:00,0,0,0,2
224,2021-07-12T03:43:00,0,0,0,2
225,2021-07-12T03:44:00,0,0,0,2
226,2021-07-12T03:45:00,0,0,0,2
227,2021-07-12T03:46:00,0,0,0,2
228,2021-07-12T03:47:00,0,0,0,2
229,2021-07-12T03:48:00,0,0,0,2
230,2021-07-12T03:49:00,0,0,0,2
231,2021-07-12T03:50:00,0,0,0,2
232,2021-07-12T03:51:00,0,0,0,2
233,2021-07-12T03:52:00,0,0,0,2
234,2021-07-12T03:53:00,0,0,0,2
235,2021-07-12T03:54:00,0,0,0,2
236,2021-07-12T03:55:00,0,0,0,2
237,2021-07-12T03:56:00,0,0,0,2
238,2021-07-12T03:57:00,0,0,0,2
239,2021-07-12T03:58:00,0,0,0,2
240,2021-07-12T03:59:00,0,0,0,2
241,2021-07-12T04:00:00,0,0,0,2
242,2021-07-12T04:01:00,0,0,0,2
243,2021-07-12T04:02:00,0,0,0,2
244,2021-07-12T04:03:00,0,0,0,2
245,2021-07-12T04:04:00,0,0,0,2
246,2021-07-12T04:05:00,0,0,0,2
247,2021-07-12T04:06:00,0,0,0,2
248,2021-07-12T04:07:00,0,0,0,2
249,2021-07-12T04:08:00,0,0,0,2
250,2021-07-12T04:09:00,0,0,0,2
251,2021-07-12T04:10:00,0,0,0,2
252,2021-07-12T04:11:00,0,0,0,2
253,2021-07-12T04:12:00,0,0,0,2
254,2021-07-12T04:13:00,0,0,0,2
255,2021-07-12T04:14:00,0,0,0,2
256,2021-07-12T04:15:00,0,0,0,2
257,2021-07-12T04:16:00,0,0,0,2
258,2021-07-12T04:17:00,0,0,0,2
259,2021-07-12T04:18:00,0,0,0,2
260,2021-07-12T04:19:00,0,0,0,2
261,2021-07-12T04:20:00,0,0,0,2
262,2021-07-12T04:21:00,0,0,0,2
263,2021-07-12T04:22:00,0,0,0,2
264,2021-07-12T04:23:00,0,0,0,2
265,2021-07-12T04:24:00,0,0,0,2
266,2021-07-12T04:25:00,0,0,0,2
267,2021-07-12T04:26:00,0,0,0,2
268,2021-07-12T04:27:00,0,0,0,2
269,2021-07-12T04:28:00,0,0,0,2
270,2021-07-12T04:29:00,0,0,0,2
271,2021-07-12T04:30:00,0,0,0,2
272,2021-07-12T04:31:00,0,0,0,2
273,2021-07-12T04:32:00,0,0,0,2
274,2021-07-12T04:33:00,0,0,0,2
275,2021-07-12T04:34:00,0,0,0,2
276,2021-07-12T04:35:00,0,0,0,2
277,2021-07-12T04:36:00,0,0,0,2
278,2021-07-12T04:37:00,0,0,0,2
279,2021-07-12T04:38:00,0,0,0,2
280,2021-07-12T04:39:00,0,0,0,2
281,2021-07-12T04:40:00,0,0,0,2
282,2021-07-12T04:41:00,0,0,0,2
283,2021-07-12T04:42:00,0,0,0,2
284,2021-07-12T04:43:00,0,0,0,2
285,2021-07-12T04:44:00,0,0,0,2
286,2021-07-12T04:45:00,0,0,0,2
287,2021-07-12T04:46:00,0,0,0,2
288,2021-07-12T04:47:00,0,0,0,2
289,2021-07-12T04:48:00,0,0,0,2
290,2021-07-12T04:49:00,0,0,0,2
291,2021-07-12T04:50:00,0,0,0,2
292,2021-07-12T04:51:00,0,0,0,2
293,2021-07-12T04:52:00,0,0,0,2
294,2021-07-12T04:53:00,0,0,0,2
295,2021-07-12T04:54:00,0,0,0,2
296,2021-07-12T04:55:00,0,0,0,2
297,2021-07-12T04:56:00,0,0,0,2
298,2021-07-12T04:57:00,0,0,0,2
299,2021-07-12T04:58:00,0,0,0,2
300,2021-07-12T04:59:00,0,0,0,2
301,2021-07-12T05:00:00,0,0,0,2
302,2021-07-12T05:01:00,0,0,0,2
303,2021-07-12T05:02:00,0,0,0,2
304,2021-07-12T05:03:00,0,0,0,2
305,2021-07-12T05:04:00,0,0,0,2
306,2021-07-12T05:05:00,0,0,0,2
307,2021-07-12T05:06:00,0,0,0,2
308,2021-07-12T05:07:00,0,0,0,2
309,2021-07-12T05:08:00,0,0,0,2
310,2021-07-12T05:09:00,0,0,0,2
311,2021-07-12T05:10:00,0,0,0,2
312,2021-07-12T05:11:00,0,0,0,2
313,2021-07-12T05:12:00,0,0,0,2
314,2021-07-12T05:13:00,0,0,0,2
315,2021-07-12T05:14:00,0,0,0,2
316,2021-07-12T05:15:00,0,0,0,2
317,2021-07-12T05:16:00,0,0,0,2
318,2021-07-12T05:17:00,0,0,0,2
319,2021-07-12T05:18:00,0,0,0,2
320,2021-07-12T05:19:00,0,0,0,2
321,2021-07-12T05:20:00,0,0,0,2
322,2021-07-12T05:21:00,0,0,0,2
323,2021-07-12T05:22:00,0,0,0,2
324,2021-07-12T05:23:00,0,0,0,2
325,2021-07-12T05:24:00,0,0,0,2
326,2021-07-12T05:25:00,0,0,0,2
327,2021-07-12T05:26:00,0,0,0,2
328,2021-07-12T05:27:00,0,0,0,2
329,2021-07-12T05:28:00,0,0,0,2
330,2021-07-12T05:29:00,0,0,0,2
331,2021-07-12T05:30:00,0,0,0,2
332,2021-07-12T05:31:00,0,0,0,2
333,2021-07-12T05:32:00,0,0,0,2
334,2021-07-12T05:33:00,0,0,0,2
335,2021-07-12T05:34:00,0,0,0,2
336,2021-07-12T05:35:00,0,0,0,2
337,2021-07-12T05:36:00,0,0,0,2
338,2021-07-12T05:37:00,0,0,0,2
339,2021-07-12T05:38:00,0,0,0,2
340,2021-07-12T05:39:00,0,0,0,2
341,2021-07-12T05:40:00,0,0,0,2
342,2021-07-12T05:41:00,0,0,0,2
343,2021-07-12T05:42:00,0,0,0,2
344,2021-07-12T05:43:00,0,0,0,2
345,2021-07-12T05:44:00,0,0,0,2
346,2021-07-12T05:45:00,0,0,0,2
347,2021-07-12T05:46:00,0,0,0,2
348,2021-07-12T05:47:00,0,0,0,2
349,2021-07-12T05:48:00,0,0,0,2
350,2021-07-12T05:49:00,0,0,0,2
351,2021-07-12T05:50:00,0,0,0,2
352,2021-07-12T05:51:00,0,0,0,2
353,2021-07-12T05:52:00,0,0,0,2
354,2021-07-12T05:53:00,0,0,0,2
355,2021-07-12T05:54:00,0,0,0,2
356,2021-07-12T05:55:00,0,0,0,2
357,2021-07-12T05:56:00,0,0,0,2
358,2021-07-12T05:57:00,0,0,0,2
359,2021-07-12T05:58:00,0,0,0,2
360,2021-07-12T05:59:00,0,0,0,2
361,2021-07-12T06:00:00,0,0,0,2
362,2021-07-12T06:01:00,0,0,0,2
363,2021-07-12T06:02:00,0,0,0,2
364,2021-07-12T06:03:00,0,0,0,2
365,2021-07-12T06:04:00,0,0,0,2
366,2021-07-12T06:05:00,0,0,0,2
367,2021-07-12T06:06:00,0,0,0,2
368,2021-07-12T06:07:00,0,0,0,2
369,2021-07-12T06:08:00,0,0,0,2
370,2021-07-12T06:09:00,0,0,0,2
371,2021-07-12T06:10:00,0,0,0,2
372,2021-07-12T06:11:00,0,0,0,2
373,2021-07-12T06:12:00,0,0,0,2
374,2021-07-12T06:13:00,0,0,0,2
375,2021-07-12T06:14:00,0,0,0,2
376,2021-07-12T06:15:00,0,0,0,2
377,2021-07-12T06:16:00,0,0,0,2
378,2021-07-12T06:17:00,0,0,0,2
379,2021-07-12T06:18:00,0,0,0,2
380,2021-07-12T06:19:00,0,0,0,2
381,2021-07-12T06:20:00,0,0,0,2
382,2021-07-12T06:21:00,0,0,0,2
383,2021-07-12T06:22:00,0,0,0,2
384,2021-07-12T06:23:00,0,0,0,2
385,2021-07-12T06:24:00,0,0,0,2
386,2021-07-12T06:25:00,0,0,0,2
387,2021-07-12T06:26:00,0,0,0,2
388,2021-07-12T06:27:00,0,0,0,2
389,2021-07-12T06:28:00,0,0,0,2
390,2021-07-12T06:29:00,0,0,0,2
391,2021-07-12T06:30:00,0,0,0,2
392,2021-07-12T06:31:00,0,0,0,2
393,2021-07-12T06:32:00,0,0,0,2
394,2021-07-12T06:33:00,0,0,0,2
395,2021-07-12T06:34:00,0,0,0,2
396,2021-07-12T06:35:00,0,0,0,2
397,2021-07-12T06:36:00,0,0,0,2
398,2021-07-12T06:37:00,0,0,0,2
399,2021-07-12T06:38:00,0,0,0,2
400,2021-07-12T06:39:00,0,0,0,2
401,2021-07-12T06:40:00,0,0,0,2
402,2021-07-12T06:41:00,0,0,0,2
403,2021-07-12T06:42:00,0,0,0,2
404,2021-07-12T06:43:00,0,0,0,2
405,2021-07-12T06:44:00,0,0,0,2
406,2021-07-12T06:45:00,0,0,0,2
407,2021-07-12T06:46:00,0,0,0,2
408,2021-07-12T06:47:00,0,0,0,2
409,2021-07-12T06:48:00,0,0,0,2
410,2021-07-12T06:49:00,0,0,0,2
411,2021-07-12T06:50:00,0,0,0,2
412,2021-07-12T06:51:00,0,0,0,2
413,2021-07-12T06:52:00,0,0,0,2
414,2021-07-12T06:53:00,0,0,0,2
415,2021-07-12T06:54:00,0,0,0,2
416,2021-07-12T06:55:00,0,0,0,2
417,2021-07-12T06:56:00,0,0,0,2
418,2021-07-12T06:57:00,0,0,0,2
419,2021-07-12T06:58:00,0,0,0,2
420,2021-07-12T06:59:00,0,0,0,2
421,2021-07-12T07:00:00,0,0,0,2
422,2021-07-12T07:01:00,0,0,0,2
423,2021-07-12T07:02:00,0,0,0,2
424,2021-07-12T07:03:00,0,0,0,2
425,2021-07-12T07:04:00,0,0,0,2
426,2021-07-12T07:05:00,0,0,0,2
427,2021-07-12T07:06:00,0,0,0,2
428,2021-07-12T07:07:00,0,0,0,2
429,2021-07-12T07:08:00,0,0,0,2
430,2021-07-12T07:09:00,0,0,0,2
431,2021-07-12T07:10:00,0,0,0,2
432,2021-07-12T07:11:00,0,0,0,2
433,2021-07-12T07:12:00,0,0,0,2
434,2021-07-12T07:13:00,0,0,0,2
435,2021-07-12T07:14:00,0,0,0,2
436,2021-07-12T07:15:00,0,0,0,2
437,2021-07-12T07:16:00,0,0,0,2
438,2021-07-12T07:17:00,0,0,0,2
439,2021-07-12T07:18:00,0,0,0,2
440,2021-07-12T07:19:00,0,0,0,2
441,2021-07-12T07:20:00,0,0,0,2
442,2021-07-12T07:21:00,0,0,0,2
443,2021-07-12T07:22:00,0,0,0,2
444,2021-07-12T07:23:00,0,0,0,2
445,2021-07-12T07:24:00,0,0,0,2
446,2021-07-12T07:25:00,0,0,0,2
447,2021-07-12T07:26:00,0,0,0,2
448,2021-07-12T07:27:00,0,0,0,2
449,2021-07-12T07:28:00,0,0,0,2
450,2021-07-12T07:29:00,0,0,0,2
451,2021-07-12T07:30:00,0,0,0,2
452,2021-07-12T07:31:00,0,0,0,2
453,2021-07-12T07:32:00,0,0,0,2
454,2021-07-12T07:33:00,0,0,0,2
455,2021-07-12T07:34:00,0,0,0,2
456,2021-07-12T07:35:00,0,0,0,2
457,2021-07-12T07:36:00,0,0,0,2
458,2021-07-12T07:37:00,0,0,0,2
459,2021-07-12T07:38:00,0,0,0,2
460,2021-07-12T07:39:00,0,0,0,2
461,2021-07-12T07:40:00,0,0,0,2
462,2021-07-12T07:41:00,0,0,0,2
463,2021-07-12T07:42:00,0,0,0,2
464,2021-07-12T07:43:00,0,0,0,2
465,2021-07-12T07:44:00,0,0,0,2
466,2021-07-12T07:45:00,0,0,0,2
467,2021-07-12T07:46:00,0,0,0,2
468,2021-07-12T07:47:00,0,0,0,2
469,2021-07-12T07:48:00,0,0,0,2
470,2021-07-12T07:49:00,0,0,0,2
471,2021-07-12T07:50:00,0,0,0,2
472,2021-07-12T07:51:00,0,0,0,2
473,2021-07-12T07:52:00,0,0,0,2
474,2021-07-12T07:53:00,0,0,0,2
475,2021-07-12T07:54:00,0,0,0,2
476,2021-07-12T07:55:00,0,0,0,2
477,2021-07-12T07:56:00,0,0,0,2
478,2021-07-12T07:57:00,0,0,0,2
479,2021-07-12T07:58:00,0,0,0,2
480,2021-07-12T07:59:00,0,0,0,2
481,2021-07-12T08:00:00,0,0,0,2
482,2021-07-12T08:01:00,0,0,0,2
483,2021-07-12T08:02:00,0,0,0,2
484,2021-07-12T08:03:00,0,0,0,2
485,2021-07-12T08:04:00,0,0,0,2
486,2021-07-12T08:05:00,0,0,0,2
487,2021-07-12T08:06:00,0,0,0,2
488,2021-07-12T08:07:00,0,0,0,2
489,2021-07-12T08:08:00,0,0,0,2
490,2021-07-12T08:09:00,0,0,0,2
491,2021-07-12T08:10:00,0,0,0,2
492,2021-07-12T08:11:00,0,0,0,2
493,2021-07-12T08:12:00,0,0,0,2
494,2021-07-12T08:13:00,0,0,0,2
495,2021-07-12T08:14:00,0,0,0,2
496,2021-07-12T08:15:00,0,0,0,2
497,2021-07-12T08:16:00,0,0,0,2
498,2021-07-12T08:17:00,0,0,0,2
499,2021-07-12T08:18:00,0,0,0,2
500,2021-07-12T08:19:00,0,0,0,2
501,2021-07-12T08:20:00,0,0,0,2
502,2021-07-12T08:21:00,0,0,0,2
503,2021-07-12T08:22:00,0,0,0,2
504,2021-07-12T08:23:00,0,0,0,2
505,2021-07-12T08:24:00,0,0,0,2
506,2021-07-12T08:25:00,0,0,0,2
507,2021-07-12T08:26:00,0,0,0,2
508,2021-07-12T08:27:00,0,0,0,2
509,2021-07-12T08:28:00,0,0,0,2
510,2021-07-12T08:29:00,0,0,0,2
511,2021-07-12T08:30:00,0,0,0,2
512,2021-07-12T08:31:00,0,0,0,2
513,2021-07-12T08:32:00,0,0,0,2
514,2021-07-12T08:33:00,0,0,0,2
515,2021-07-12T08:34:00,0,0,0,2
516,2021-07-12T08:35:00,0,0,0,2
517,2021-07-12T08:36:00,0,0,0,2
518,2021-07-12T08:37:00,0,0,0,2
519,2021-07-12T08:38:00,0,0,0,2
520,2021-07-12T08:39:00,0,0,0,2
521,2021-07-12T08:40:00,0,0,0,2
522,2021-07-12T08:41:00,0,0,0,2
523,2021-07-12T08:42:00,0,0,0,2
524,2021-07-12T08:43:00,0,0,0,2
525,2021-07-12T08:44:00,0,0,0,2
526,2021-07-12T08:45:00,0,0,0,2
527,2021-07-12T08:46:00,0,0,0,2
528,2021-07-12T08:47:00,0,0,0,2
529,2021-07-12T08:48:00,0,0,0,2
530,2021-07-12T08:49:00,0,0,0,2
531,2021-07-12T08:50:00,0,0,0,2
532,2021-07-12T08:51:00,0,0,0,2
533,2021-07-12T08:52:00,0,0,0,2
534,2021-07-12T08:53:00,0,0,0,2
535,2021-07-12T08:54:00,0,0,0,2
536,2021-07-12T08:55:00,0,0,0,2
537,2021-07-12T08:56:00,0,0,0,2
538,2021-07-12T08:57:00,0,0,0,2
539,2021-07-12T08:58:00,0,0,0,2
540,2021-07-12T08:59:00,0,0,0,2
541,2021-07-12T09:00:00,0,0,0,2
542,2021-07-12T09:01:00,0,0,0,2
543,2021-07-12T09:02:00,0,0,0,2
544,2021-07-12T09:03:00,0,0,0,2
545,2021-07-12T09:04:00,0,0,0,2
546,2021-07-12T09:05:00,0,0,0,2
547,2021-07-12T09:06:00,0,0,0,2
548,2021-07-12T09:07:00,0,0,0,2
549,2021-07-12T09:08:00,0,0,0,2
550,2021-07-12T09:09:00,0,0,0,2
551,2021-07-12T09:10:00,0,0,0,2
552,2021-07-12T09:11:00,0,0,0,2
553,2021-07-12T09:12:00,0,0,0,2
554,2021-07-12T09:13:00,0,0,0,2
555,2021-07-12T09:14:00,0,0,0,2
556,2021-07-12T09:15:00,0,0,0,2
557,2021-07-12T09:16:00,0,0,0,2
558,2021-07-12T09:17:00,0,0,0,2
559,2021-07-12T09:18:00,0,0,0,2
560,2021-07-12T09:19:00,0,0,0,2
561,2021-07-12T09:20:00,0,0,0,2
562,2021-07-12T09:21:00,0,0,0,2
563,2021-07-12T09:22:00,0,0,0,2
564,2021-07-12T09:23:00,0,0,0,2
565,2021-07-12T09:24:00,0,0,0,2
566,2021-07-12T09:25:00,0,0,0,2
567,2021-07-12T09:26:00,0,0,0,2
568,2021-07-12T09:27:00,0,0,0,2
569,2021-07-12T09:28:00,0.5,0.5,0.5,2.5
570,2021-07-12T09:29:00,0.5,0.5,0.5,2.5
571,2021-07-12T09:30:00,0.5,0.5,0.5,2.5
572,2021-07-12T09:31:00,0.5,0.5,0.5,2.5
573,2021-07-12T09:32:00,0.5,0.5,0.5,2.5
574,2021-07-12T09:33:00,0.5,0.5,0.5,2.5
575,2021-07-12T09:34:00,0.5,0.5,0.5,2.5
576,2021-07-12T09:35:00,0.5,0.5,0.5,2.5
577,2021-07-12T09:36:00,0.5,0.5,0.5,2.5
578,2021-07-12T09:37:00,0.5,0.5,0.5,2.5
579,2021-07-12T09:38:00,0,0.5,0.5,2.5
580,2021-07-12T09:39:00,0,0.5,0.5,2.5
581,2021-07-12T09:40:00,0,0.5,0.5,2.5
582,2021-07-12T09:41:00,0,0.5,0.5,2.5
583,2021-07-12T09:42:00,0,0.5,0.5,2.5
584,2021-07-12T09:43:00,0,0.5,0.5,2.5
585,2021-07-12T09:44:00,0,0.5,0.5,2.5
586,2021-07-12T09:45:00,0,0.5,0.5,2.5
587,2021-07-12T09:46:00,0,0.5,0.5,2.5
588,2021-07-12T09:47:00,0,0.5,0.5,2.5
589,2021-07-12T09:48:00,0,0.5,0.5,2.5
590,2021-07-12T09:49:00,0,0.5,0.5,2.5
591,2021-07-12T09:50:00,0,0.5,0.5,2.5
592,2021-07-12T09:51:00,0,0.5,0.5,2.5
593,2021-07-12T09:52:00,0,0.5,0.5,2.5
594,2021-07-12T09:53:00,0,0.5,0.5,2.5
595,2021-07-12T09:54:00,0,0.5,0.5,2.5
596,2021-07-12T09:55:00,0,0.5,0.5,2.5
597,2021-07-12T09:56:00,0,0.5,0.5,2.5
598,2021-07-12T09:57:00,0,0.5,0.5,2.5
599,2021-07-12T09:58:00,0,0.5,0.5,2.5
600,2021-07-12T09:59:00,0,0.5,0.5,2.5
601,2021-07-12T10:00:00,0,0.5,0.5,2.5
602,2021-07-12T10:01:00,0,0.5,0.5,2.5
603,2021-07-12T10:02:00,0,0.5,0.5,2.5
604,2021-07-12T10:03:00,0,0.5,0.5,2.5
605,2021-07-12T10:04:00,0,0.5,0.5,2.5
606,2021-07-12T10:05:00,0,0.5,0.5,2.5
607,2021-07-12T10:06:00,0,0.5,0.5,2.5
608,2021-07-12T10:07:00,0,0.5,0.5,2.5
609,2021-07-12T10:08:00,0.5,1,1,3
610,2021-07-12T10:09:00,0.5,1,1,3
611,2021-07-12T10:10:00,0.5,1,1,3
612,2021-07-12T10:11:00,0.5,1,1,3
613,2021-07-12T10:12:00,0.5,1,1,3
614,2021-07-12T10:13:00,0.5,1,1,3
615,2021-07-12T10:14:00,0.5,1,1,3
616,2021-07-12T10:15:00,0.5,1,1,3
617,2021-07-12T10:16:00,0.5,1,1,3
618,2021-07-12T10:17:00,0.5,1,1,3
619,2021-07-12T10:18:00,0,1,1,3
620,2021-07-12T10:19:00,0,1,1,3
621,2021-07-12T10:20:00,0,1,1,3
622,2021-07-12T10:21:00,0,1,1,3
623,2021-07-12T10:22:00,0,1,1,3
624,2021-07-12T10:23:00,0,1,1,3
625,2021-07-12T10:24:00,0,1,1,3
626,2021-07-12T10:25:00,0,1,1,3
627,2021-07-12T10:26:00,0.5,1.5,1.5,3.5
628,2021-07-12T10:27:00,0.5,1.5,1.5,3.5
629,2021-07-12T10:28:00,0.5,1,1.5,3.5
630,2021-07-12T10:29:00,0.5,1,1.5,3.5
631,2021-07-12T10:30:00,0.5,1,1.5,3.5
632,2021-07-12T10:31:00,0.5,1,1.5,3.5
633,2021-07-12T10:32:00,0.5,1,1.5,3.5
634,2021-07-12T10:33:00,1,1.5,2,4
635,2021-07-12T10:34:00,1,1.5,2,4
636,2021-07-12T10:35:00,1,1.5,2,4
637,2021-07-12T10:36:00,0.5,1.5,2,4
638,2021-07-12T10:37:00,0.5,1.5,2,4
639,2021-07-12T10:38:00,0.5,1.5,2,4
640,2021-07-12T10:39:00,1,2,2.5,4.5
641,2021-07-12T10:40:00,1,2,2.5,4.5
642,2021-07-12T10:41:00,1,2,2.5,4.5
643,2021-07-12T10:42:00,1,2,2.5,4.5
644,2021-07-12T10:43:00,0.5,2,2.5,4.5
645,2021-07-12T10:44:00,0.5,2,2.5,4.5
646,2021-07-12T10:45:00,1,2.5,3,5
647,2021-07-12T10:46:00,1,2.5,3,5
648,2021-07-12T10:47:00,1,2.5,3,5
649,2021-07-12T10:48:00,1,2.5,3,5
650,2021-07-12T10:49:00,0.5,2.5,3,5
651,2021-07-12T10:50:00,0.5,2.5,3,5
652,2021-07-12T10:51:00,0.5,2.5,3,5
653,2021-07-12T10:52:00,1,3,3.5,5.5
654,2021-07-12T10:53:00,1,3,3.5,5.5
655,2021-07-12T10:54:00,1,3,3.5,5.5
656,2021-07-12T10:55:00,0.5,3,3.5,5.5
657,2021-07-12T10:56:00,0.5,3,3.5,5.5
658,2021-07-12T10:57:00,0.5,3,3.5,5.5
659,2021-07-12T10:58:00,1,3.5,4,6
660,2021-07-12T10:59:00,1,3.5,4,6
661,2021-07-12T11:00:00,1,3.5,4,6
662,2021-07-12T11:01:00,1,3.5,4,6
663,2021-07-12T11:02:00,0.5,3.5,4,6
664,2021-07-12T11:03:00,0.5,3.5,4,6
665,2021-07-12T11:04:00,1,4,4.5,6.5
666,2021-07-12T11:05:00,1,4,4.5,6.5
667,2021-07-12T11:06:00,1,4,4.5,6.5
668,2021-07-12T11:07:00,1,4,4.5,6.5
669,2021-07-12T11:08:00,0.5,3.5,4.5,6.5
670,2021-07-12T11:09:00,0.5,3.5,4.5,6.5
671,2021-07-12T11:10:00,0.5,3.5,4.5,6.5
672,2021-07-12T11:11:00,1,4,5,7
673,2021-07-12T11:12:00,1,4,5,7
674,2021-07-12T11:13:00,1,4,5,7
675,2021-07-12T11:14:00,0.5,4,5,7
676,2021-07-12T11:15:00,0.5,4,5,7
677,2021-07-12T11:16:00,0.5,4,5,7
678,2021-07-12T11:17:00,0.5,4,5,7
679,2021-07-12T11:18:00,0.5,4,5,7
680,2021-07-12T11:19:00,0.5,4,5,7
681,2021-07-12T11:20:00,0.5,4,5,7
682,2021-07-12T11:21:00,0,4,5,7
683,2021-07-12T11:22:00,0.5,4.5,5.5,7.5
684,2021-07-12T11:23:00,0.5,4.5,5.5,7.5
685,2021-07-12T11:24:00,0.5,4.5,5.5,7.5
686,2021-07-12T11:25:00,0.5,4.5,5.5,7.5
687,2021-07-12T11:26:00,0.5,4,5.5,7.5
688,2021-07-12T11:27:00,0.5,4,5.5,7.5
689,2021-07-12T11:28:00,0.5,4,5.5,7.5
690,2021-07-12T11:29:00,0.5,4,5.5,7.5
691,2021-07-12T11:30:00,0.5,4,5.5,7.5
692,2021-07-12T11:31:00,0.5,4,5.5,7.5
693,2021-07-12T11:32:00,0,4,5.5,7.5
694,2021-07-12T11:33:00,0,3.5,5.5,7.5
695,2021-07-12T11:34:00,0,3.5,5.5,7.5
696,2021-07-12T11:35:00,0,3.5,5.5,7.5
697,2021-07-12T11:36:00,0,3.5,5.5,7.5
698,2021-07-12T11:37:00,0,3.5,5.5,7.5
699,2021-07-12T11:38:00,0,3.5,5.5,7.5
700,2021-07-12T11:39:00,0,3,5.5,7.5
701,2021-07-12T11:40:00,0.5,3.5,6,8
702,2021-07-12T11:41:00,0.5,3.5,6,8
703,2021-07-12T11:42:00,0.5,3.5,6,8
704,2021-07-12T11:43:00,0.5,3.5,6,8
705,2021-07-12T11:44:00,0.5,3.5,6,8
706,2021-07-12T11:45:00,0.5,3,6,8
707,2021-07-12T11:46:00,0.5,3,6,8
708,2021-07-12T11:47:00,0.5,3,6,8
709,2021-07-12T11:48:00,0.5,3,6,8
710,2021-07-12T11:49:00,0.5,3,6,8
711,2021-07-12T11:50:00,0,3,6,8
712,2021-07-12T11:51:00,0,3,6,8
713,2021-07-12T11:52:00,0,2.5,6,8
714,2021-07-12T11:53:00,0,2.5,6,8
715,2021-07-12T11:54:00,0.5,3,6.5,8.5
716,2021-07-12T11:55:00,0.5,3,6.5,8.5
717,2021-07-12T11:56:00,0.5,3,6.5,8.5
718,2021-07-12T11:57:00,0.5,3,6.5,8.5
719,2021-07-12T11:58:00,0.5,2.5,6.5,8.5
720,2021-07-12T11:59:00,0.5,2.5,6.5,8.5
721,2021-07-12T12:00:00,0.5,2.5,6.5,8.5
722,2021-07-12T12:01:00,0.5,2.5,6.5,8.5
723,2021-07-12T12:02:00,0.5,2.5,6.5,8.5
724,2021-07-12T12:03:00,0.5,2.5,6.5,8.5
725,2021-07-12T12:04:00,0,2,6.5,8.5
726,2021-07-12T12:05:00,0,2,6.5,8.5
727,2021-07-12T12:06:00,0,2,6.5,8.5
728,2021-07-12T12:07:00,0,2,6.5,8.5